Simultaneous Nadir Overpasses (SNOs) Predictions

Prediction of SNOs between GOES-14 and NOAA-20 Satellite Orbit:

Table of predicted SNOs for the next 14.0 days since TLE Epoch: 3/15/2019
Index Date Time (GOES-14) GOES-14 Lat,Lon NOAA-20 Lat,Lon Distance(km) Time Diff (sec)
1 03/16/2019 20:30:10 -0.09,-104.27 -0.44,-105.81 175.65 80
2 03/17/2019 20:08:45 -0.09,-104.26 0.59,-101.28 340.18 80
3 03/19/2019 08:30:34 0.09,-104.40 0.56,-106.56 245.09 80
4 03/20/2019 08:14:29 0.09,-104.41 -0.47,-102.03 271.83 80
5 03/21/2019 20:36:24 -0.09,-104.28 -0.77,-107.33 346.66 80
6 03/22/2019 20:15:00 -0.09,-104.28 0.25,-102.80 169.37 80
7 03/24/2019 08:36:48 0.09,-104.41 0.89,-108.08 417.21 80
8 03/25/2019 08:20:43 0.09,-104.42 -0.08,-103.54 99.96 80
9 03/27/2019 20:22:48 -0.10,-104.31 -0.13,-104.31 2.97 14




NCC Satellite Simultaneous Nadir Overpasses (SNOs) Prediction Service
